Location: DARK SKY Beskydy - Park tmavé oblohy, www.darkskybeskydy.cz
(49.4926°N, 18.5016°E)
Time: 22:21:13
(UTC+02:00)

ACS3 Solar Sail - Pass Details

Date: 18 June 2024
Orbit: 992 x 1023 km, 97.4° (Epoch: 12 July)

Event Time Altitude Azimuth Distance (km) Brightness Sun altitude
Exits shadow 22:41:49 - 184° (S) 2,827 6.7 -11.9°
Reaches altitude 10° 22:41:59 10° 184° (S) 2,765 6.7 -11.9°
Maximum altitude 22:48:06 55° 262° (W) 1,184 5.4 -12.4°
Drops below altitude 10° 22:54:12 10° 340° (NNW) 2,769 8.7 -12.9°
Sets 22:56:46 0° 345° (NNW) 3,721 9.7 -13.0°
